Stations météo

Publicité
Sete, France (7641): Température de l'air & dewpoint: 17.04.2017 23:00:00 - 23.04.2017 23:00:00 (CEST)Sete, France (7641): Vitesse du vent & gusts: 17.04.2017 23:00:00 - 23.04.2017 23:00:00 (CEST)Sete, France (7641): Direction du vent: 17.04.2017 23:00:00 - 23.04.2017 23:00:00 (CEST)Sete, France (7641): reduced air pressure: 17.04.2017 23:00:00 - 23.04.2017 23:00:00 (CEST)Sete, France (7641): visibility: 17.04.2017 23:00:00 - 23.04.2017 23:00:00 (CEST)Sete, France (7641): Quantités de précipitations: 17.04.2017 23:00:00 - 23.04.2017 23:00:00 (CEST)
Date & Time tt [°C] td [°C] ff [km/h] ff [knt] fx [km/h] fx [knt] dd ppp [hPa] vv [km] rr [mm]
23.04.2017 23:00:00 14,7 9,5 10 5 13 7 NE 1017,7 - 0,0
23.04.2017 22:00:00 14,6 9,0 6 3 19 10 N 1017,5 - 0,0
23.04.2017 21:00:00 15,0 10,0 17 9 27 14 SW 1016,6 - 0,0
23.04.2017 20:00:00 15,4 10,6 19 10 29 16 SW 1016,2 20 0,0
23.04.2017 19:00:00 16,2 10,9 18 10 27 14 SSW 1016,1 - 0,0
23.04.2017 18:00:00 16,9 10,5 16 9 27 15 SSW 1016,1 - 0,0
23.04.2017 17:00:00 17,3 9,9 16 8 26 14 SSW 1016,2 - 0,0
23.04.2017 16:00:00 17,3 8,7 18 10 29 16 SSW 1016,5 - 0,0
23.04.2017 15:00:00 17,7 9,3 20 11 32 17 SSW 1017,1 - 0,0
23.04.2017 14:00:00 17,5 9,6 19 11 30 16 SSW 1017,4 20 0,0
23.04.2017 13:00:00 17,3 9,2 19 11 29 16 SSW 1018,0 - 0,0
23.04.2017 12:00:00 19,8 5,8 9 5 18 10 SSW 1018,4 - 0,0
23.04.2017 11:00:00 18,8 4,5 11 6 22 12 NNW 1018,7 20 0,0
23.04.2017 10:00:00 17,3 4,9 10 6 22 12 NNW 1019,0 - 0,0
23.04.2017 09:00:00 15,7 4,4 12 7 27 14 N 1019,3 - 0,0
23.04.2017 08:00:00 14,0 4,3 15 8 35 19 NNW 1019,0 20 0,0
23.04.2017 07:00:00 13,4 3,7 23 12 35 19 N 1018,5 - 0,0
23.04.2017 06:00:00 13,4 4,0 18 10 46 25 N 1018,4 - 0,0
23.04.2017 05:00:00 14,2 3,9 21 11 34 18 NNE 1018,3 15 0,0
23.04.2017 04:00:00 13,7 5,3 18 10 26 14 NNE 1018,7 - 0,0
23.04.2017 03:00:00 13,6 6,9 16 9 25 14 NNE 1019,0 - 0,0
23.04.2017 02:00:00 12,6 8,3 13 7 22 12 NNE 1019,5 - 0,0
23.04.2017 01:00:00 12,9 8,8 12 7 22 12 N 1019,7 - 0,0
23.04.2017 00:00:00 15,6 0,6 9 5 17 9 W 1019,4 - 0,0
22.04.2017 23:00:00 15,0 3,5 12 6 18 10 W 1019,5 - 0,0
22.04.2017 22:00:00 14,0 6,4 13 7 16 9 W 1019,7 - 0,0
22.04.2017 21:00:00 13,7 8,7 13 7 23 12 SW 1019,6 - 0,0
22.04.2017 20:00:00 14,2 9,4 14 8 30 16 SSW 1019,6 - 0,0
22.04.2017 19:00:00 14,6 10,4 19 10 33 18 SSW 1020,0 - 0,0
22.04.2017 18:00:00 15,2 10,8 20 11 38 20 SSW 1020,6 - 0,0
22.04.2017 17:00:00 16,0 10,1 19 10 32 17 SSW 1021,1 20 0,0
22.04.2017 16:00:00 17,1 8,5 16 8 24 13 S 1022,1 - 0,0
22.04.2017 15:00:00 17,1 10,5 14 7 21 12 S 1023,1 - 0,0
22.04.2017 14:00:00 17,4 10,0 10 6 17 9 S 1023,8 - 0,0
22.04.2017 13:00:00 15,2 9,1 7 4 15 8 ESE 1024,7 - 0,0
22.04.2017 12:00:00 15,8 8,8 8 4 17 9 E 1025,3 - 0,0
22.04.2017 11:00:00 15,4 7,7 8 4 19 10 ENE 1025,7 20 0,0
22.04.2017 10:00:00 13,9 5,3 10 5 17 9 NE 1025,8 - 0,0
22.04.2017 09:00:00 11,9 3,4 13 7 23 12 N 1026,1 - 0,0
22.04.2017 08:00:00 10,7 3,0 14 7 23 12 NNE 1026,0 20 0,0
22.04.2017 07:00:00 9,9 2,3 16 8 25 14 NNE 1025,5 - 0,0
22.04.2017 06:00:00 9,9 2,7 14 8 25 14 N 1025,5 - 0,0
22.04.2017 05:00:00 10,5 5,0 12 6 19 11 NNE 1025,9 20 0,0
22.04.2017 04:00:00 10,8 6,0 9 5 15 8 N 1026,2 - 0,0
22.04.2017 03:00:00 11,1 6,2 10 5 15 8 NNE 1026,5 - 0,0
22.04.2017 02:00:00 11,3 7,2 10 6 16 9 N 1027,2 - 0,0
22.04.2017 01:00:00 11,1 6,4 9 5 13 7 NNW 1027,3 - 0,0
22.04.2017 00:00:00 12,2 7,9 7 4 10 5 W 1027,5 - 0,0
21.04.2017 23:00:00 12,2 7,1 6 4 21 12 W 1027,9 - 0,0
21.04.2017 22:00:00 12,8 7,2 16 8 30 16 SSW 1027,9 - 0,0
21.04.2017 21:00:00 13,1 4,8 19 10 32 17 SW 1027,5 - 0,0
21.04.2017 20:00:00 13,3 5,0 19 10 31 17 SSW 1027,1 20 0,0
21.04.2017 19:00:00 13,5 5,4 18 10 29 16 SSW 1027,4 - 0,0
21.04.2017 18:00:00 14,2 4,5 18 10 31 17 SSW 1027,4 - 0,0
21.04.2017 17:00:00 14,7 4,4 19 10 31 17 SSW 1027,5 20 0,0
21.04.2017 16:00:00 16,4 3,8 14 8 26 14 S 1028,2 - 0,0
21.04.2017 15:00:00 16,0 3,7 13 7 24 13 SSE 1028,7 - 0,0
21.04.2017 14:00:00 16,3 2,7 11 6 26 14 SSE 1029,0 - 0,0
21.04.2017 13:00:00 15,4 0,8 13 7 27 14 E 1029,3 - 0,0
21.04.2017 12:00:00 14,9 -0,1 12 6 25 13 E 1029,4 - 0,0
21.04.2017 11:00:00 14,4 -3,9 13 7 34 18 E 1029,0 25 0,0
21.04.2017 10:00:00 12,7 -5,9 16 9 35 19 NE 1028,7 - 0,0
21.04.2017 09:00:00 11,2 -7,6 21 11 39 21 NNE 1028,4 - 0,0
21.04.2017 08:00:00 10,4 -7,8 17 9 29 15 N 1028,0 - 0,0
21.04.2017 07:00:00 9,0 -4,2 11 6 29 16 N 1027,5 - 0,0
21.04.2017 06:00:00 9,4 -8,2 14 7 24 13 N 1027,3 - 0,0
21.04.2017 05:00:00 9,3 -6,2 16 9 31 17 N 1027,3 20 0,0
21.04.2017 04:00:00 10,4 -7,4 20 11 31 17 N 1027,3 - 0,0
21.04.2017 03:00:00 11,1 -7,2 16 9 23 12 N 1027,3 - 0,0
21.04.2017 02:00:00 11,4 -5,6 14 8 22 12 N 1027,5 - 0,0
21.04.2017 01:00:00 10,7 -2,7 10 6 16 9 N 1027,5 - 0,0
21.04.2017 00:00:00 12,3 -2,7 7 4 20 11 NE 1027,2 - 0,0
20.04.2017 23:00:00 12,3 2,7 6 3 14 7 NE 1027,2 - 0,0
20.04.2017 22:00:00 12,3 3,8 5 3 22 12 NNE 1026,9 - 0,0
20.04.2017 21:00:00 12,6 4,0 11 6 16 9 W 1025,7 - 0,0
20.04.2017 20:00:00 13,1 3,5 13 7 22 12 SW 1025,1 20 0,0
20.04.2017 19:00:00 13,6 2,8 17 9 27 14 SSW 1025,1 - 0,0
20.04.2017 18:00:00 14,6 0,4 13 7 26 14 SSW 1025,3 - 0,0
20.04.2017 17:00:00 15,8 0,7 16 8 25 13 S 1025,7 20 0,0
20.04.2017 16:00:00 16,8 0,4 10 5 19 11 SSE 1026,3 - 0,0
20.04.2017 15:00:00 15,9 -0,4 12 7 23 12 S 1027,0 - 0,0
20.04.2017 14:00:00 15,3 -1,8 11 6 26 14 E 1027,1 - 0,0
20.04.2017 13:00:00 14,9 -2,5 12 6 27 15 E 1027,7 - 0,0
20.04.2017 12:00:00 13,9 -4,3 10 5 33 18 NNE 1028,4 - 0,0
20.04.2017 11:00:00 12,5 -5,5 18 10 44 24 N 1028,3 - 0,0
20.04.2017 10:00:00 10,6 -6,7 24 13 43 23 NNE 1028,0 - 0,0
20.04.2017 09:00:00 8,6 -6,0 22 12 40 22 N 1027,6 - 0,0
20.04.2017 08:00:00 7,9 -5,6 14 7 39 21 N 1027,0 20 0,0
20.04.2017 07:00:00 7,0 -6,4 18 10 38 21 N 1026,4 - 0,0
20.04.2017 06:00:00 6,8 -6,2 13 7 25 14 N 1026,1 - 0,0
20.04.2017 05:00:00 6,9 -6,8 19 10 30 16 NW 1025,6 - 0,0
20.04.2017 04:00:00 7,2 -5,9 18 10 29 15 NW 1025,3 - 0,0
20.04.2017 03:00:00 8,0 -6,6 14 8 41 22 N 1025,3 - 0,0
20.04.2017 02:00:00 8,8 -6,2 22 12 46 25 N 1025,1 - 0,0
20.04.2017 01:00:00 9,4 -6,5 23 12 40 22 N 1025,1 - 0,0
20.04.2017 00:00:00 10,1 -5,9 23 12 61 33 N 1024,6 - 0,0
19.04.2017 23:00:00 11,3 -6,1 33 18 57 31 N 1024,1 - 0,0
19.04.2017 22:00:00 12,2 -7,3 31 17 55 30 NNE 1023,2 - 0,0
19.04.2017 21:00:00 13,4 -7,9 30 16 61 33 NNE 1022,0 - 0,0
19.04.2017 20:00:00 15,1 -8,4 29 15 49 26 NNE 1021,6 20 0,0
19.04.2017 19:00:00 16,5 -8,7 26 14 55 30 NNE 1020,8 - 0,0
19.04.2017 18:00:00 17,2 -10,6 30 16 52 28 N 1020,5 - 0,0
19.04.2017 17:00:00 17,5 -11,3 26 14 45 25 NNE 1020,8 20 0,0
19.04.2017 16:00:00 17,7 -9,3 27 15 50 27 NNE 1020,9 - 0,0
19.04.2017 15:00:00 17,2 -11,5 28 15 54 29 N 1021,9 - 0,0
19.04.2017 14:00:00 16,5 -8,7 29 15 55 30 N 1022,4 30 0,0
19.04.2017 13:00:00 15,7 -9,3 31 17 57 31 NNE 1022,8 - 0,0
19.04.2017 12:00:00 14,6 -9,5 32 17 59 32 NNE 1023,2 - 0,0
19.04.2017 11:00:00 13,9 -8,7 28 15 57 31 NNE 1023,1 20 0,0
19.04.2017 10:00:00 12,7 -7,9 26 14 53 29 N 1022,8 - 0,0
19.04.2017 09:00:00 11,2 -7,6 30 16 56 30 N 1022,8 - 0,0
19.04.2017 08:00:00 9,2 -5,9 21 11 45 24 NNW 1022,3 20 0,0
19.04.2017 07:00:00 7,4 -4,7 18 10 61 33 NNW 1021,7 - 0,0
19.04.2017 06:00:00 7,8 -5,0 39 21 67 36 NNW 1021,0 - 0,0
19.04.2017 05:00:00 8,3 -4,9 30 16 64 34 NNW 1021,2 20 0,0
19.04.2017 04:00:00 8,9 -5,0 29 16 59 32 NNW 1021,3 - 0,0
19.04.2017 03:00:00 9,1 -2,8 22 12 37 20 NNW 1022,4 - 0,0
19.04.2017 02:00:00 9,8 -5,0 20 11 35 19 N 1022,7 - 0,0
19.04.2017 01:00:00 10,7 -5,4 15 8 39 21 N 1022,5 - 0,0
19.04.2017 00:00:00 11,5 -6,0 14 7 31 17 N 1021,8 - 0,0
18.04.2017 23:00:00 12,6 -6,4 15 8 49 27 N 1021,0 - 0,0
18.04.2017 22:00:00 13,5 -6,7 32 18 61 33 N 1019,8 - 0,0
18.04.2017 21:00:00 14,5 -7,6 30 16 54 29 N 1018,5 - 0,0
18.04.2017 20:00:00 16,0 -7,7 25 13 46 25 N 1017,4 25 0,0
18.04.2017 19:00:00 17,8 -6,9 22 12 51 28 N 1016,4 - 0,0
18.04.2017 18:00:00 19,6 -4,7 26 14 50 27 N 1015,8 - 0,0
18.04.2017 17:00:00 20,5 -3,3 19 10 53 28 NNW 1015,7 25 0,0
18.04.2017 16:00:00 20,7 -1,8 20 11 46 25 NNW 1016,0 - 0,0
18.04.2017 15:00:00 20,5 -2,0 19 11 42 23 NNW 1016,1 - 0,0
18.04.2017 14:00:00 19,5 3,6 9 5 38 20 SE 1016,5 25 0,0
18.04.2017 13:00:00 19,5 0,5 16 9 40 22 NW 1016,6 - 0,0
18.04.2017 12:00:00 18,4 0,9 18 10 39 21 NNW 1017,0 - 0,0
18.04.2017 11:00:00 17,5 2,2 16 9 36 19 NNW 1016,9 25 0,0
18.04.2017 10:00:00 16,1 2,5 16 9 35 19 NNW 1017,0 - 0,0
18.04.2017 09:00:00 14,2 3,9 15 8 38 20 NW 1017,0 - 0,0
18.04.2017 08:00:00 12,9 4,1 19 11 35 19 NW 1016,9 20 0,0
18.04.2017 07:00:00 12,1 3,6 22 12 42 23 NNW 1016,6 - 0,0
18.04.2017 06:00:00 12,4 3,6 23 12 38 21 NNW 1016,4 - 0,0
18.04.2017 05:00:00 12,9 4,1 20 11 36 20 NNW 1016,5 20 0,0
18.04.2017 04:00:00 13,6 3,9 19 11 29 16 NNW 1016,5 - 0,0
18.04.2017 03:00:00 13,9 5,5 10 5 16 8 NNW 1016,7 - 0,0
18.04.2017 02:00:00 13,7 5,3 9 5 18 10 N 1017,1 - 0,0
18.04.2017 01:00:00 14,8 4,5 7 4 16 9 NNE 1017,2 - 0,0
18.04.2017 00:00:00 15,4 4,7 14 7 23 13 N 1017,2 - 0,0
17.04.2017 23:00:00 16,5 5,4 13 7 23 12 N 1017,2 - 0,0

tt = Température de l'air
td = dewpoint
ff = Vitesse du vent
fx = gusts
dd = Direction du vent
ppp = reduced air pressure
vv = visibility
rr = Quantités de précipitations

stations d'obs. à proximité